Date String (YYYY-MM-DD hh:mm:ss) UTC,Instrument flags,absolute air pressure of the measurement (hPa),sample flow rate (lpm),inlet stack bypass flow (lpm),air temperature of the measurement (°C),ambient temperature measured by the external sensor (°C),aerosol sample conditioner tube jacket temperature (°C),OPC LED temperature (°C),internal box temperature (°C),relative humidity of the measurement (%),span deviation,mass concentration of particles derived from Lorenz-Mie calculation of OPC scattering (μg/m³),mass concentration of particles derived from Lorenz-Mie calculation of OPC scattering (μg/m³),mass concentration of particles derived from Lorenz-Mie calculation of OPC scattering (μg/m³)
DateTimeUTC,F1_M11,P_M11,Q1_M11,Q2_M11,T1_M11,T2_M11,T3_M11,T4_M11,T5_M11,U1_M11,ZSPAN_M11,X2_M11,X0_M11,X1_M11
2024-04-29 08:00:00,SystemResetWarning,0825.9,5.00,000.00,025.2,024.4,000.0,033.8,027.0,016.1,0000.0,0001.30,0002.72,0000.70
2024-04-29 08:01:00,SystemResetWarning,0825.9,5.00,000.00,025.2,024.4,000.0,033.8,027.0,016.4,0000.0,0001.32,0002.67,0000.70
2024-04-29 08:02:00,SystemResetWarning,0825.9,5.00,000.00,025.2,024.4,000.0,033.8,027.1,016.3,0000.0,0001.31,0002.54,0000.71
2024-04-29 08:03:00,SystemResetWarning,0825.9,5.00,000.00,025.2,024.4,000.0,033.8,027.1,016.2,0000.0,0001.28,0002.44,0000.71
2024-04-29 08:04:00,SystemResetWarning,0825.9,4.99,000.00,025.2,024.4,000.0,033.8,027.1,016.3,0000.0,0001.32,0002.53,0000.71
2024-04-29 08:05:00,SystemResetWarning,0825.9,4.99,000.00,025.2,024.4,000.0,033.8,027.0,016.2,0000.0,0001.33,0002.57,0000.70
2024-04-29 08:06:00,SystemResetWarning,0826.0,5.01,000.00,025.2,024.4,000.0,033.8,027.0,016.2,0000.0,0001.31,0002.53,0000.70
2024-04-29 08:07:00,SystemResetWarning,0825.9,5.01,000.00,025.2,024.4,000.0,033.8,027.0,016.0,0000.0,0001.36,0003.07,0000.71
2024-04-29 08:08:00,SystemResetWarning,0825.9,5.01,000.00,025.2,024.4,000.0,033.8,027.0,015.7,0000.0,0001.37,0003.57,0000.71
2024-04-29 08:09:00,SystemResetWarning,0825.9,5.00,000.00,025.2,024.4,000.0,033.8,027.0,016.0,0000.0,0001.35,0003.54,0000.71
2024-04-29 08:10:00,SystemResetWarning,0825.8,5.00,000.00,025.2,024.4,000.0,033.8,027.0,015.9,0000.0,0001.31,0003.38,0000.71
2024-04-29 08:11:00,SystemResetWarning,0825.8,5.00,000.00,025.2,024.4,000.0,033.8,027.0,015.7,0000.0,0001.28,0003.37,0000.73
2024-04-29 08:12:00,SystemResetWarning,0825.8,4.99,000.00,025.2,024.4,000.0,033.8,027.0,015.4,0000.0,0001.26,0003.36,0000.75
2024-04-29 08:13:00,SystemResetWarning,0825.8,5.00,000.00,025.2,024.4,000.0,033.8,027.0,015.3,0000.0,0001.29,0003.47,0000.76
2024-04-29 08:14:00,SystemResetWarning,0825.8,5.00,000.00,025.2,024.4,000.0,033.8,027.0,015.0,0000.0,0001.30,0003.56,0000.78
2024-04-29 08:15:00,SystemResetWarning,0825.8,5.00,000.00,025.2,024.4,000.0,033.8,027.0,015.0,0000.0,0001.37,0003.94,0000.79
2024-04-29 08:16:00,SystemResetWarning,0825.8,5.00,000.00,025.2,024.4,000.0,033.7,027.0,015.0,0000.0,0001.39,0004.04,0000.81
2024-04-29 08:17:00,SystemResetWarning,0825.8,5.00,000.00,025.2,024.4,000.0,033.7,027.0,015.1,0000.0,0001.48,0004.30,0000.83
2024-04-29 08:18:00,SystemResetWarning,0825.7,5.00,000.00,025.1,024.3,000.0,033.7,027.0,015.3,0000.0,0001.57,0004.49,0000.86
2024-04-29 08:19:00,SystemResetWarning,0825.7,5.00,000.00,025.1,024.3,000.0,033.7,026.9,015.4,0000.0,0001.62,0003.69,0000.87
2024-04-29 08:20:00,SystemResetWarning,0825.7,5.00,000.00,025.1,024.3,000.0,033.7,026.9,015.4,0000.0,0001.72,0004.08,0000.90
2024-04-29 08:21:00,SystemResetWarning,0825.7,5.01,000.00,025.1,024.3,000.0,033.7,026.9,015.2,0000.0,0001.88,0004.63,0000.94
2024-04-29 08:22:00,SystemResetWarning,0825.7,5.01,000.00,025.1,024.3,000.0,033.7,026.9,014.8,0000.0,0002.03,0004.97,0000.97
2024-04-29 08:23:00,SystemResetWarning,0825.7,5.00,000.00,025.1,024.3,000.0,033.7,026.9,014.5,0000.0,0002.13,0005.30,0000.97
2024-04-29 08:24:00,SystemResetWarning,0825.7,4.99,000.00,025.1,024.3,000.0,033.7,026.9,014.4,0000.0,0002.20,0005.78,0000.99
2024-04-29 08:25:00,SystemResetWarning,0825.7,4.98,000.00,025.1,024.3,000.0,033.7,026.9,014.3,0000.0,0002.28,0005.90,0001.00
2024-04-29 08:26:00,SystemResetWarning,0825.7,4.99,000.00,025.1,024.2,000.0,033.7,026.9,014.5,0000.0,0002.26,0005.65,0001.01
2024-04-29 08:27:00,SystemResetWarning,0825.7,5.00,000.00,025.1,024.2,000.0,033.7,026.9,014.6,0000.0,0002.29,0005.58,0001.03
2024-04-29 08:28:00,SystemResetWarning,0825.7,5.00,000.00,025.0,024.2,000.0,033.6,026.8,014.7,0000.0,0002.29,0005.46,0001.04
2024-04-29 08:29:00,SystemResetWarning,0825.7,5.01,000.00,025.0,024.2,000.0,033.6,026.8,014.8,0000.0,0002.27,0005.34,0001.04
2024-04-29 08:30:00,SystemResetWarning,0825.7,5.00,000.00,025.0,024.2,000.0,033.6,026.8,014.9,0000.0,0002.34,0005.43,0001.06
2024-04-29 08:31:00,SystemResetWarning,0825.7,4.99,000.00,025.0,024.2,000.0,033.6,026.8,015.4,0000.0,0002.30,0005.15,0001.07
2024-04-29 08:32:00,SystemResetWarning,0825.6,4.99,000.00,025.0,024.2,000.0,033.6,026.8,015.1,0000.0,0002.25,0004.78,0001.05
2024-04-29 08:33:00,SystemResetWarning,0825.7,5.00,000.00,025.0,024.2,000.0,033.6,026.8,014.9,0000.0,0002.16,0004.56,0001.04
2024-04-29 08:34:00,SystemResetWarning,0825.6,5.01,000.00,025.0,024.2,000.0,033.6,026.8,015.0,0000.0,0002.14,0004.51,0001.05
2024-04-29 08:35:00,SystemResetWarning,0825.7,5.00,000.00,025.0,024.2,000.0,033.6,026.8,014.8,0000.0,0002.06,0003.94,0001.06
2024-04-29 08:36:00,SystemResetWarning,0825.7,5.01,000.00,025.0,024.1,000.0,033.6,026.8,014.5,0000.0,0002.04,0003.98,0001.06
2024-04-29 08:37:00,SystemResetWarning,0825.7,5.00,000.00,025.0,024.1,000.0,033.6,026.8,014.5,0000.0,0002.13,0004.16,0001.06
2024-04-29 08:38:00,SystemResetWarning,0825.7,5.00,000.00,025.0,024.1,000.0,033.6,026.7,014.8,0000.0,0002.12,0004.17,0001.06
2024-04-29 08:39:00,SystemResetWarning,0825.7,4.99,000.00,024.9,024.1,000.0,033.5,026.7,014.8,0000.0,0002.16,0004.33,0001.06
2024-04-29 08:40:00,SystemResetWarning,0825.8,4.99,000.00,024.9,024.1,000.0,033.5,026.7,014.8,0000.0,0002.25,0004.69,0001.07
2024-04-29 08:41:00,SystemResetWarning,0825.7,5.00,000.00,024.9,024.1,000.0,033.5,026.7,014.7,0000.0,0002.24,0004.75,0001.07
2024-04-29 08:42:00,SystemResetWarning,0825.7,5.01,000.00,024.9,024.1,000.0,033.5,026.7,014.7,0000.0,0002.23,0004.75,0001.08
2024-04-29 08:43:00,SystemResetWarning,0825.7,5.00,000.00,024.9,024.1,000.0,033.5,026.7,014.8,0000.0,0002.25,0004.81,0001.09
2024-04-29 08:44:00,SystemResetWarning,0825.7,5.01,000.00,024.9,024.1,000.0,033.5,026.7,014.8,0000.0,0002.33,0004.96,0001.09
2024-04-29 08:45:00,SystemResetWarning,0825.7,4.99,000.00,024.9,024.0,000.0,033.5,026.7,014.9,0000.0,0002.38,0004.99,0001.11
2024-04-29 08:46:00,SystemResetWarning,0825.7,4.99,000.00,024.9,024.0,000.0,033.5,026.7,015.1,0000.0,0002.44,0005.18,0001.10
2024-04-29 08:47:00,SystemResetWarning,0825.7,5.00,000.00,024.9,024.0,000.0,033.5,026.6,015.0,0000.0,0002.46,0005.14,0001.10
2024-04-29 08:48:00,SystemResetWarning,0825.7,5.01,000.00,024.8,024.0,000.0,033.5,026.7,015.3,0000.0,0002.40,0005.18,0001.10
2024-04-29 08:49:00,SystemResetWarning,0825.7,5.01,000.00,024.8,024.0,000.0,033.4,026.6,015.3,0000.0,0002.45,0005.78,0001.10
2024-04-29 08:50:00,SystemResetWarning,0825.6,4.99,000.00,024.8,024.0,000.0,033.4,026.6,015.4,0000.0,0002.44,0005.68,0001.10
2024-04-29 08:51:00,SystemResetWarning,0825.6,4.99,000.00,024.8,024.0,000.0,033.4,026.6,015.6,0000.0,0002.35,0005.95,0001.10
2024-04-29 08:52:00,SystemResetWarning,0825.6,5.01,000.00,024.8,024.0,000.0,033.4,026.6,015.8,0000.0,0002.32,0006.30,0001.10
2024-04-29 08:53:00,SystemResetWarning,0825.6,5.01,000.00,024.8,024.0,000.0,033.4,026.6,015.8,0000.0,0002.35,0006.45,0001.09
2024-04-29 08:54:00,SystemResetWarning,0825.6,5.01,000.00,024.8,024.0,000.0,033.4,026.6,015.8,0000.0,0002.36,0006.51,0001.08
2024-04-29 08:55:00,SystemResetWarning,0825.5,5.00,000.00,024.8,023.9,000.0,033.4,026.6,015.9,0000.0,0002.30,0006.37,0001.08
2024-04-29 08:56:00,SystemResetWarning,0825.6,4.99,000.00,024.8,023.9,000.0,033.4,026.6,015.9,0000.0,0002.28,0006.24,0001.08
2024-04-29 08:57:00,SystemResetWarning,0825.5,5.00,000.00,024.7,023.9,000.0,033.3,026.5,015.9,0000.0,0002.22,0006.07,0001.07
2024-04-29 08:58:00,SystemResetWarning,0825.5,5.01,000.00,024.7,023.9,000.0,033.3,026.5,015.8,0000.0,0002.14,0005.88,0001.07
2024-04-29 08:59:00,SystemResetWarning,0825.5,5.01,000.00,024.7,023.8,000.0,033.3,026.5,016.2,0000.0,0002.12,0005.91,0001.07
